Location: Newark
(44.6303°N, 123.0961°W)
Time: 23:20:59
(UTC+00:00)

Envisat - Visible Passes

Search period start: 24 January 2020 00:00
Search period end: 03 February 2020 00:00
Orbit: 764 x 766 km, 98.1° (Epoch: 24 January)

Date Brightness Start Highest point End Pass type
(mag) Time Alt. Az. Time Alt. Az. Time Alt. Az.
24 Jan 5.4 03:05:36 10° SW 03:09:36 23° W 03:13:38 10° NW visible
24 Jan 6.2 13:34:13 10° ENE 13:36:45 14° E 13:39:17 10° ESE visible
25 Jan 4.0 02:27:40 10° S 02:32:35 49° W 02:37:32 10° NNW visible
25 Jan 4.1 14:34:35 10° NNE 14:39:33 50° E 14:44:27 10° S visible
26 Jan 3.0 01:50:42 10° SSE 01:55:46 78° ENE 02:00:52 10° N visible
26 Jan 6.2 03:32:55 10° WSW 03:35:23 13° W 03:37:51 10° WNW visible
26 Jan 5.5 13:58:27 10° NE 14:02:32 24° E 14:06:34 10° SE visible
27 Jan 5.1 02:53:51 10° SSW 02:58:13 29° W 03:02:38 10° NW visible
27 Jan 6.4 13:24:15 10° ENE 13:25:18 11° E 13:26:21 10° E visible
27 Jan 3.1 14:59:57 10° NNE 15:05:04 86° ESE 15:10:09 10° SSW visible
28 Jan 3.6 02:16:15 10° S 02:21:15 62° W 02:26:19 10° NNW visible
28 Jan 4.5 14:23:25 10° NNE 14:28:12 40° E 14:32:57 10° SSE visible
29 Jan 3.0 01:39:30 10° SSE 01:44:30 62° ENE 01:49:32 10° N visible
29 Jan 5.9 03:20:41 10° SW 03:23:57 17° W 03:27:15 10° NW visible
29 Jan 5.9 13:47:33 10° NE 13:51:08 19° E 13:54:41 10° SE visible
30 Jan 4.7 02:42:12 10° SSW 02:46:51 36° W 02:51:32 10° NNW visible
30 Jan 3.4 14:48:41 10° NNE 14:53:46 69° ESE 14:58:49 10° S visible
31 Jan 3.2 02:04:52 10° S 02:09:57 78° WSW 02:15:04 10° NNW visible
31 Jan 5.0 14:12:18 10° NNE 14:16:50 32° E 14:21:21 10° SSE visible
01 Feb 5.6 03:08:42 10° SW 03:12:32 21° W 03:16:24 10° NW visible
01 Feb 6.2 13:36:48 10° NE 13:39:42 15° E 13:42:34 10° SE visible
02 Feb 4.2 02:30:39 10° S 02:35:30 45° W 02:40:23 10° NNW visible
02 Feb 3.9 14:37:27 10° NNE 14:42:27 55° E 14:47:25 10° S visible
